Regional Weather Roundup
Issued by NWS

Home | Current Version | Previous Version | Graphics & Text | Print | Product List | Glossary On
Versions: 1 2 3 4 5 6 7 8 9 10 11 12 13 14 15 16 17 18 19 20 21 22 23 24 25 26 27 28 29 30 31 32 33 34 35 36 37 38 39 40 41 42 43 44 45 46 47 48 49 50
000
ASUS43 KMPX 240110
RWRMN
WEATHER ROUNDUP FOR MINNESOTA
NATIONAL WEATHER SERVICE TWIN CITIES/CHANHASSEN MN
800 PM CDT WED APR 23 2014


NOTE: "FAIR" INDICATES FEW OR NO CLOUDS BELOW 12,000 FEET WITH NO
SIGNIFICANT WEATHER AND/OR OBSTRUCTIONS TO VISIBILITY. N/A MEANS
CURRENT SKY AND/OR WEATHER CONDITIONS ARE NOT AVAILABLE.

MNZ060>063-068>070-240200-
   Twin Cities Metro

CITY           SKY/WX    TMP DP  RH WIND       PRES   REMARKS
TWIN CITIES    RAIN      42  39  89 E17G25    29.93F
ST PAUL        LGT RAIN  43  38  82 SE13      29.96S
CRYSTAL        RAIN      43  38  82 E13       29.93S
BLAINE         LGT RAIN  43  41  93 E12       29.94S
EDEN PRAIRIE   CLOUDY    42  37  82 E13       29.90F
LAKEVILLE      CLOUDY    39  37  93 E15G21    29.91S
SOUTH ST PAUL  LGT RAIN  44  41  90 E9G21     29.94S
LAKE ELMO      LGT RAIN  43  37  81 E13       29.96S
$$
MNZ001>005-007-008-013>017-022>024-027-028-240200-
   Northwest Minnesota

CITY           SKY/WX    TMP DP  RH WIND       PRES   REMARKS
BEMIDJI        RAIN      35  33  94 SE13      29.93F WCI  26
HALLOCK        LGT RAIN  43  41  93 SE18G25   29.88F
ROSEAU         CLOUDY    50  28  43 S16       29.91R
WARROAD        CLOUDY    48  30  49 S6        29.91S
THIEF RVR FALL CLOUDY    41  36  81 SE16      29.91F
CROOKSTON      MIX PCPN  39  39 100 SE21      29.87F
FOSSTON        LGT RAIN  37  36  93 SE14G21   29.90R
DETROIT LAKES  DRIZZLE   36  36 100 SE16G24   29.86S
MOORHEAD       DRIZZLE   41  41 100 SE15      29.81S
PARK RAPIDS    LGT RAIN  34  33  96 E8        29.90F FOG     WCI  27
$$
MNZ006-009>011-018-025>026-240200-
   North Central Minnesota

CITY           SKY/WX    TMP DP  RH WIND       PRES   REMARKS
BAUDETTE       CLOUDY    51  25  36 S8        29.91S
FLAG ISLAND    CLOUDY    48  23  37 E12G17    29.89S
INTL FALLS     CLOUDY    50  21  32 SE8       29.94S
WASKISH        LGT RAIN  45  36  70 SE14G23   29.94R
BIG FORK       CLOUDY    48  25  40 SE9       29.95S
LONGVILLE      LGT SNOW  34  32  93 CALM      29.96R
GRAND RAPIDS   CLOUDY    46  25  42 SE10      29.95S
CRANE LAKE     CLOUDY    46  18  31 CALM      29.99F
ORR            CLOUDY    46  18  31 SE3       29.94F
COOK           CLOUDY    48  25  40 E3        29.97F
$$
MNZ012-019>021-037-240200-
   Northeast Minnesota

CITY           SKY/WX    TMP DP  RH WIND       PRES   REMARKS
DULUTH         CLOUDY    41  23  48 E14       29.99S
ELY            CLOUDY    45  18  33 E8        30.00F
HIBBING        CLOUDY    47  24  40 SE12      29.97R
EVELETH        CLOUDY    43  21  42 SE6       29.99S
DULUTH HARBOR  CLOUDY    34  30  86 CALM      30.03R
TWO HARBORS    CLOUDY    39  25  56 E10       30.00S
SILVER BAY     CLOUDY    37  27  65 NE6       30.01F
GRAND MARAIS     N/A     38  30  73 NE5       30.06F
G MARAIS ARPRT CLOUDY    37  18  44 NE6       30.05F
$$
MNZ029>031-032-039>041-046>048-054>057-064-240200-
   West Central Minnesota

CITY           SKY/WX    TMP DP  RH WIND       PRES   REMARKS
FERGUS FALLS   CLOUDY    41  36  81 SE22G30   29.79R
WHEATON        CLOUDY    45  39  81 E26G32    29.79S
MORRIS         CLOUDY    43  36  75 SE23G31   29.79F
ALEXANDRIA     CLOUDY    40  36  86 E20G26    29.85F
ELBOW LAKE     CLOUDY    40  36  83 SE20G31   29.81S
WADENA         CLOUDY    36  36 100 SE24      29.86F
GLENWOOD       CLOUDY    39  36  87 E18G25    29.85F
APPLETON       CLOUDY    45  36  70 SE22      29.78F
BENSON         CLOUDY    43  36  75 SE16G23   29.81F
ORTONVILLE     CLOUDY    43  36  75 SE20G25   29.76S
MADISON        CLOUDY    46  39  76 SE21G29   29.77R
WILLMAR        CLOUDY    43  36  75 E22G31    29.84F
$$
MNZ033>034-036-042>043-049>051-058-059-240200-
   Central Minnesota

CITY           SKY/WX    TMP DP  RH WIND       PRES   REMARKS
ST CLOUD       CLOUDY    41  37  86 E8        29.91F
SAUK CENTRE    CLOUDY    39  36  89 E16G22    29.87F
PAYNESVILLE    CLOUDY    40  35  82 E13G18    29.88S
AITKIN         LGT RAIN  39  34  81 SE8       29.94F
PINE RIVER     LGT RAIN  34  34 100 E6        29.98S WCI  29
BRAINERD       LGT RAIN  42  35  76 VRB5      29.95F
STAPLES        DRIZZLE   36  36 100 E8        29.91F
LONG PRAIRIE   CLOUDY    37  36  93 E14G22    29.90R
LITTLE FALLS   CLOUDY    37  36  93 E9G17     29.91F
LITCHFIELD     LGT RAIN  41  37  87 E17       29.88S
BUFFALO        RAIN      41  37  84 E14G21    29.91F
MAPLE LAKE     LGT RAIN  41  39  93 E12G17    29.91F
$$
MNZ037-044-045-052-053-240200-
   East Central Minnesota

CITY           SKY/WX    TMP DP  RH WIND       PRES   REMARKS
PRINCETON      CLOUDY    41  37  87 E10       29.94F
MORA           RAIN      36  34  93 CALM      29.99S
CAMBRIDGE      LGT RAIN  43  34  70 E7        29.93F
RUSH CITY      LGT RAIN  39  37  91 E5        29.99S
MOOSE LAKE     DRIZZLE   41  28  60 CALM      29.97R
HINCKLEY       LGT RAIN  41  36  81 E8G16     29.98F
CLOQUET        CLOUDY    41  25  52 E7        29.98S
MCGREGOR       CLOUDY    43  34  70 SE13G24   29.97S
$$
MNZ071>073-080-081-089-090-097-098-240200-
   Southwest Minnesota

CITY           SKY/WX    TMP DP  RH WIND       PRES   REMARKS
MONTEVIDEO     CLOUDY    43  37  81 SE17G23   29.80S
GRANITE FALLS  CLOUDY    44  36  73 E22G28    29.80F
CANBY          CLOUDY    46  39  77 SE18G25   29.75S
MARSHALL       MOCLDY    46  36  66 SE23G30   29.76S
REDWOOD FALLS  CLOUDY    44  37  76 SE16G26   29.82F
OLIVIA         CLOUDY    43  36  75 SE16G22   29.81F
PIPESTONE      CLOUDY    48  37  66 SE21G29   29.71R
WINDOM         CLOUDY    45  37  76 SE20G26   29.80S
WORTHINGTON    PTCLDY    46  34  61 SE24G30   29.76S
JACKSON        CLOUDY    45  36  70 SE18G26   29.80S
TRACY          CLOUDY    46  38  72 SE20G25   29.78R
SLAYTON        CLOUDY    45  37  74 SE21G29   29.75R
$$
MNZ065>067-074>077-082>085-091>093-240200-
   South Central Minnesota

CITY           SKY/WX    TMP DP  RH WIND       PRES   REMARKS
MANKATO        CLOUDY    45  34  65 SE22G30   29.87R
NEW ULM        CLOUDY    45  37  76 SE20G25   29.84F
ST JAMES       CLOUDY    45  37  76 SE16      29.85R
FAIRMONT       CLOUDY    45  36  70 SE22G29   29.83S
GLENCOE        CLOUDY    42  35  75 E15       29.87F
FARIBAULT      CLOUDY    46  34  61 E6        29.90S
OWATONNA       CLOUDY    45  36  70 SE16G25   29.88F
WASECA         CLOUDY    43  32  65 SE21G29   29.88F
ALBERT LEA     CLOUDY    45  37  76 SE22G29   29.86F
$$
MNZ078>079-086>088-094>096-240200-
   Southeast Minnesota

CITY           SKY/WX    TMP DP  RH WIND       PRES   REMARKS
ROCHESTER      CLOUDY    44  34  67 SE16      29.91F
RED WING       RAIN      43  39  87 E10G16    29.94F
STANTON        CLOUDY    43  36  76 E9G20     29.90F
DODGE CENTER   CLOUDY    46  34  61 SE18      29.90S
WINONA         RAIN      43  37  81 SE9       29.98F
AUSTIN         CLOUDY    43  36  75 SE16      29.89F
PRESTON        CLOUDY    44  37  77 SE9       29.93F
$$
ABBREVIATIONS USED IN REMARKS
   TC - TEMPERATURES IN CELSIUS
  WCI - WIND CHILL INDEX
   HX - HEAT INDEX
  VSB - VISIBILITY
$$



USA.gov is the U.S. government's official web portal to all federal, state and local government web resources and services.